Time,TemperatureF,DewpointF,PressureIn,WindDirection,WindDirectionDegrees,WindSpeedMPH,WindSpeedGustMPH,Humidity,HourlyPrecipIn,Conditions,Clouds,dailyrainin,SoftwareType,DateUTC
2013-07-16 00:04:00,76.2,74.0,30.15,WNW,297,0.0,0.0,91,0.00,,,0.00,weatherlink.com 1.10,2013-07-16 04:04:00,
2013-07-16 00:19:00,75.9,74.0,30.14,WNW,297,0.0,0.0,92,0.00,,,0.00,weatherlink.com 1.10,2013-07-16 04:19:00,
2013-07-16 00:34:00,75.6,73.0,30.14,WNW,297,0.0,0.0,92,0.00,,,0.00,weatherlink.com 1.10,2013-07-16 04:34:00,
2013-07-16 00:49:00,75.2,73.0,30.14,WNW,297,0.0,0.0,92,0.00,,,0.00,weatherlink.com 1.10,2013-07-16 04:49:00,
2013-07-16 01:05:00,74.9,73.0,30.14,WNW,297,0.0,0.0,93,0.00,,,0.00,weatherlink.com 1.10,2013-07-16 05:05:00,
2013-07-16 01:20:00,74.6,73.0,30.14,WNW,297,0.0,0.0,93,0.00,,,0.00,weatherlink.com 1.10,2013-07-16 05:20:00,
2013-07-16 01:35:00,74.4,73.0,30.14,WNW,297,0.0,0.0,94,0.00,,,0.00,weatherlink.com 1.10,2013-07-16 05:35:00,
2013-07-16 01:51:00,74.4,73.0,30.14,WNW,297,0.0,0.0,94,0.00,,,0.00,weatherlink.com 1.10,2013-07-16 05:51:00,
2013-07-16 02:05:00,74.4,73.0,30.14,WNW,297,0.0,0.0,94,0.00,,,0.00,weatherlink.com 1.10,2013-07-16 06:05:00,
2013-07-16 02:20:00,74.4,73.0,30.14,WNW,297,0.0,0.0,94,0.00,,,0.00,weatherlink.com 1.10,2013-07-16 06:20:00,
2013-07-16 02:35:00,74.5,73.0,30.14,WNW,297,0.0,0.0,94,0.00,,,0.00,weatherlink.com 1.10,2013-07-16 06:35:00,
2013-07-16 02:50:00,74.6,73.0,30.14,WNW,297,0.0,0.0,94,0.00,,,0.00,weatherlink.com 1.10,2013-07-16 06:50:00,
2013-07-16 03:05:00,74.6,73.0,30.14,WNW,297,0.0,0.0,94,0.00,,,0.00,weatherlink.com 1.10,2013-07-16 07:05:00,
2013-07-16 03:20:00,74.7,73.0,30.14,WNW,297,0.0,0.0,94,0.00,,,0.00,weatherlink.com 1.10,2013-07-16 07:20:00,
2013-07-16 03:35:00,74.6,73.0,30.14,WNW,297,0.0,0.0,93,0.00,,,0.00,weatherlink.com 1.10,2013-07-16 07:35:00,
2013-07-16 03:50:00,74.3,72.0,30.14,WNW,297,0.0,0.0,93,0.00,,,0.00,weatherlink.com 1.10,2013-07-16 07:50:00,
2013-07-16 04:05:00,74.0,72.0,30.14,WNW,297,0.0,0.0,94,0.00,,,0.00,weatherlink.com 1.10,2013-07-16 08:05:00,
2013-07-16 04:20:00,73.8,72.0,30.14,WNW,297,0.0,0.0,94,0.00,,,0.00,weatherlink.com 1.10,2013-07-16 08:20:00,
2013-07-16 04:35:00,73.5,72.0,30.14,WNW,297,0.0,0.0,95,0.00,,,0.00,weatherlink.com 1.10,2013-07-16 08:35:00,
2013-07-16 04:50:00,73.3,72.0,30.14,WNW,297,0.0,0.0,95,0.00,,,0.00,weatherlink.com 1.10,2013-07-16 08:50:00,
2013-07-16 05:05:00,73.4,72.0,30.14,WNW,297,0.0,1.0,95,0.00,,,0.00,weatherlink.com 1.10,2013-07-16 09:05:00,
2013-07-16 05:20:00,73.3,72.0,30.15,WNW,297,0.0,0.0,95,0.00,,,0.00,weatherlink.com 1.10,2013-07-16 09:20:00,
2013-07-16 05:35:00,73.4,72.0,30.15,WNW,297,0.0,0.0,95,0.00,,,0.00,weatherlink.com 1.10,2013-07-16 09:35:00,
2013-07-16 05:50:00,73.4,72.0,30.16,WNW,296,0.0,0.0,95,0.00,,,0.00,weatherlink.com 1.10,2013-07-16 09:50:00,
2013-07-16 06:05:00,73.7,72.0,30.16,WNW,296,0.0,0.0,95,0.00,,,0.00,weatherlink.com 1.10,2013-07-16 10:05:00,
2013-07-16 06:20:00,73.6,72.0,30.17,WNW,296,0.0,0.0,95,0.01,,,0.01,weatherlink.com 1.10,2013-07-16 10:20:00,
2013-07-16 06:35:00,73.7,72.0,30.17,WNW,296,0.0,0.0,95,0.01,,,0.01,weatherlink.com 1.10,2013-07-16 10:35:00,
2013-07-16 06:50:00,73.7,72.0,30.17,WNW,296,0.0,0.0,95,0.01,,,0.01,weatherlink.com 1.10,2013-07-16 10:50:00,
2013-07-16 07:05:00,74.0,73.0,30.17,WNW,296,0.0,0.0,95,0.01,,,0.01,weatherlink.com 1.10,2013-07-16 11:05:00,
2013-07-16 07:20:00,74.7,73.0,30.18,WNW,296,0.0,0.0,93,0.00,,,0.01,weatherlink.com 1.10,2013-07-16 11:20:00,
2013-07-16 07:35:00,75.6,73.0,30.18,WNW,296,0.0,0.0,92,0.00,,,0.01,weatherlink.com 1.10,2013-07-16 11:35:00,
2013-07-16 07:50:00,76.1,73.0,30.18,WNW,296,0.0,0.0,89,0.00,,,0.01,weatherlink.com 1.10,2013-07-16 11:50:00,
2013-07-16 08:05:00,76.4,73.0,30.18,WNW,296,0.0,0.0,90,0.00,,,0.01,weatherlink.com 1.10,2013-07-16 12:05:00,
2013-07-16 08:20:00,77.5,74.0,30.18,WNW,296,0.0,1.0,88,0.00,,,0.01,weatherlink.com 1.10,2013-07-16 12:20:00,
2013-07-16 08:35:00,80.1,76.0,30.19,WNW,296,0.0,2.0,86,0.00,,,0.01,weatherlink.com 1.10,2013-07-16 12:35:00,
2013-07-16 08:50:00,82.5,76.0,30.19,WNW,288,0.0,4.0,80,0.00,,,0.01,weatherlink.com 1.10,2013-07-16 12:50:00,
2013-07-16 09:05:00,84.2,76.0,30.18,West,277,0.0,3.0,75,0.00,,,0.01,weatherlink.com 1.10,2013-07-16 13:05:00,
2013-07-16 09:20:00,85.8,77.0,30.18,WNW,298,0.0,4.0,74,0.00,,,0.01,weatherlink.com 1.10,2013-07-16 13:20:00,
2013-07-16 09:35:00,86.9,77.0,30.18,ENE,63,1.0,1.0,72,0.00,,,0.01,weatherlink.com 1.10,2013-07-16 13:35:00,
2013-07-16 09:50:00,88.0,76.0,30.18,WSW,257,0.0,4.0,67,0.00,,,0.01,weatherlink.com 1.10,2013-07-16 13:50:00,
2013-07-16 10:06:00,88.8,77.0,30.19,WNW,294,3.0,5.0,68,0.00,,,0.01,weatherlink.com 1.10,2013-07-16 14:06:00,
2013-07-16 10:21:00,89.8,77.0,30.18,NNW,341,1.0,3.0,66,0.00,,,0.01,weatherlink.com 1.10,2013-07-16 14:21:00,
2013-07-16 10:36:00,89.3,77.0,30.18,ESE,116,1.0,6.0,66,0.00,,,0.01,weatherlink.com 1.10,2013-07-16 14:36:00,
2013-07-16 10:51:00,89.9,78.0,30.18,WNW,290,3.0,4.0,67,0.00,,,0.01,weatherlink.com 1.10,2013-07-16 14:51:00,
2013-07-16 11:06:00,90.5,76.0,30.18,WSW,257,0.0,4.0,63,0.00,,,0.01,weatherlink.com 1.10,2013-07-16 15:06:00,
2013-07-16 11:21:00,89.7,76.0,30.18,NNW,329,0.0,4.0,64,0.00,,,0.01,weatherlink.com 1.10,2013-07-16 15:21:00,
2013-07-16 11:36:00,89.6,76.0,30.17,West,278,2.0,5.0,64,0.00,,,0.01,weatherlink.com 1.10,2013-07-16 15:36:00,
2013-07-16 11:51:00,90.2,76.0,30.17,WSW,257,0.0,4.0,63,0.00,,,0.01,weatherlink.com 1.10,2013-07-16 15:51:00,
2013-07-16 12:06:00,91.1,76.0,30.17,SE,126,0.0,8.0,61,0.00,,,0.01,weatherlink.com 1.10,2013-07-16 16:06:00,
2013-07-16 12:21:00,92.6,75.0,30.16,NE,43,1.0,5.0,57,0.00,,,0.01,weatherlink.com 1.10,2013-07-16 16:21:00,
2013-07-16 12:36:00,92.8,75.0,30.16,SW,227,1.0,7.0,57,0.00,,,0.01,weatherlink.com 1.10,2013-07-16 16:36:00,
2013-07-16 12:51:00,92.2,75.0,30.15,West,264,2.0,5.0,58,0.00,,,0.01,weatherlink.com 1.10,2013-07-16 16:51:00,
2013-07-16 13:06:00,92.9,77.0,30.16,NW,319,4.0,6.0,60,0.00,,,0.01,weatherlink.com 1.10,2013-07-16 17:06:00,
2013-07-16 13:21:00,92.7,76.0,30.15,West,277,1.0,7.0,58,0.00,,,0.01,weatherlink.com 1.10,2013-07-16 17:21:00,
2013-07-16 13:36:00,93.2,76.0,30.14,West,274,1.0,5.0,57,0.00,,,0.01,weatherlink.com 1.10,2013-07-16 17:36:00,
2013-07-16 13:51:00,92.7,76.0,30.14,WNW,287,0.0,7.0,58,0.00,,,0.01,weatherlink.com 1.10,2013-07-16 17:51:00,
2013-07-16 14:06:00,93.1,75.0,30.13,WNW,296,0.0,5.0,56,0.00,,,0.01,weatherlink.com 1.10,2013-07-16 18:06:00,
2013-07-16 14:21:00,93.5,72.0,30.13,WSW,257,2.0,8.0,50,0.00,,,0.01,weatherlink.com 1.10,2013-07-16 18:21:00,
2013-07-16 14:36:00,93.3,72.0,30.13,West,269,2.0,8.0,50,0.00,,,0.01,weatherlink.com 1.10,2013-07-16 18:36:00,
2013-07-16 14:51:00,93.7,71.0,30.13,West,272,6.0,8.0,48,0.00,,,0.01,weatherlink.com 1.10,2013-07-16 18:51:00,
2013-07-16 15:06:00,93.7,71.0,30.13,SW,217,2.0,6.0,48,0.00,,,0.01,weatherlink.com 1.10,2013-07-16 19:06:00,
2013-07-16 15:21:00,94.5,72.0,30.12,WNW,295,3.0,7.0,48,0.00,,,0.01,weatherlink.com 1.10,2013-07-16 19:21:00,
2013-07-16 15:36:00,94.0,71.0,30.12,SE,135,0.0,4.0,47,0.00,,,0.01,weatherlink.com 1.10,2013-07-16 19:36:00,
2013-07-16 15:51:00,94.1,73.0,30.11,West,261,1.0,3.0,50,0.00,,,0.01,weatherlink.com 1.10,2013-07-16 19:51:00,
2013-07-16 16:06:00,94.1,70.0,30.11,ESE,121,1.0,3.0,46,0.00,,,0.01,weatherlink.com 1.10,2013-07-16 20:06:00,
2013-07-16 16:21:00,94.5,69.0,30.11,ESE,111,0.0,5.0,43,0.00,,,0.01,weatherlink.com 1.10,2013-07-16 20:21:00,
2013-07-16 16:36:00,94.8,70.0,30.10,West,268,0.0,5.0,45,0.00,,,0.01,weatherlink.com 1.10,2013-07-16 20:36:00,
2013-07-16 16:51:00,94.7,71.0,30.10,WNW,288,3.0,4.0,46,0.00,,,0.01,weatherlink.com 1.10,2013-07-16 20:51:00,
2013-07-16 17:06:00,94.0,70.0,30.10,ESE,115,0.0,3.0,45,0.00,,,0.01,weatherlink.com 1.10,2013-07-16 21:06:00,
2013-07-16 17:21:00,93.6,69.0,30.10,West,277,1.0,4.0,45,0.00,,,0.01,weatherlink.com 1.10,2013-07-16 21:21:00,
2013-07-16 17:36:00,93.8,69.0,30.10,West,267,2.0,7.0,45,0.00,,,0.01,weatherlink.com 1.10,2013-07-16 21:36:00,
2013-07-16 17:51:00,94.2,68.0,30.10,North,355,1.0,3.0,43,0.00,,,0.01,weatherlink.com 1.10,2013-07-16 21:51:00,
2013-07-16 18:06:00,93.6,69.0,30.10,North,11,1.0,5.0,45,0.00,,,0.01,weatherlink.com 1.10,2013-07-16 22:06:00,
2013-07-16 18:21:00,93.2,70.0,30.10,West,267,2.0,4.0,47,0.00,,,0.01,weatherlink.com 1.10,2013-07-16 22:21:00,
2013-07-16 18:36:00,93.0,71.0,30.10,West,265,0.0,3.0,48,0.00,,,0.01,weatherlink.com 1.10,2013-07-16 22:36:00,
2013-07-16 18:51:00,93.1,72.0,30.10,WNW,294,0.0,3.0,50,0.00,,,0.01,weatherlink.com 1.10,2013-07-16 22:51:00,
2013-07-16 19:06:00,93.2,71.0,30.10,WNW,293,0.0,3.0,48,0.00,,,0.01,weatherlink.com 1.10,2013-07-16 23:06:00,
2013-07-16 19:21:00,91.7,71.0,30.10,West,271,0.0,1.0,50,0.00,,,0.01,weatherlink.com 1.10,2013-07-16 23:21:00,
2013-07-16 19:36:00,91.2,71.0,30.10,West,271,0.0,1.0,51,0.00,,,0.01,weatherlink.com 1.10,2013-07-16 23:36:00,
2013-07-16 19:51:00,91.3,71.0,30.11,West,271,0.0,1.0,52,0.00,,,0.01,weatherlink.com 1.10,2013-07-16 23:51:00,
2013-07-16 20:06:00,91.3,73.0,30.11,West,271,0.0,0.0,55,0.00,,,0.01,weatherlink.com 1.10,2013-07-17 00:06:00,
2013-07-16 20:21:00,89.2,72.0,30.11,West,271,0.0,0.0,58,0.00,,,0.01,weatherlink.com 1.10,2013-07-17 00:21:00,
2013-07-16 20:36:00,86.5,72.0,30.11,West,271,0.0,0.0,63,0.00,,,0.01,weatherlink.com 1.10,2013-07-17 00:36:00,
2013-07-16 20:51:00,84.5,73.0,30.12,West,271,0.0,0.0,68,0.00,,,0.01,weatherlink.com 1.10,2013-07-17 00:51:00,
2013-07-16 21:06:00,82.7,73.0,30.11,West,271,0.0,0.0,72,0.00,,,0.01,weatherlink.com 1.10,2013-07-17 01:06:00,
2013-07-16 21:21:00,81.2,72.0,30.11,West,271,0.0,0.0,74,0.00,,,0.01,weatherlink.com 1.10,2013-07-17 01:21:00,
2013-07-16 21:36:00,80.1,72.0,30.12,West,271,0.0,0.0,77,0.00,,,0.01,weatherlink.com 1.10,2013-07-17 01:36:00,
2013-07-16 21:51:00,79.1,72.0,30.12,West,271,0.0,0.0,78,0.00,,,0.01,weatherlink.com 1.10,2013-07-17 01:51:00,
2013-07-16 22:06:00,78.3,72.0,30.13,West,271,0.0,0.0,80,0.00,,,0.01,weatherlink.com 1.10,2013-07-17 02:06:00,
2013-07-16 22:21:00,77.7,71.0,30.13,West,271,0.0,0.0,81,0.00,,,0.01,weatherlink.com 1.10,2013-07-17 02:21:00,
2013-07-16 22:36:00,77.1,72.0,30.13,West,271,0.0,0.0,83,0.00,,,0.01,weatherlink.com 1.10,2013-07-17 02:36:00,
2013-07-16 22:51:00,76.7,72.0,30.13,West,271,0.0,0.0,85,0.00,,,0.01,weatherlink.com 1.10,2013-07-17 02:51:00,
2013-07-16 23:06:00,76.3,72.0,30.14,West,271,0.0,0.0,86,0.00,,,0.01,weatherlink.com 1.10,2013-07-17 03:06:00,
2013-07-16 23:21:00,76.0,72.0,30.14,West,271,0.0,0.0,87,0.00,,,0.01,weatherlink.com 1.10,2013-07-17 03:21:00,
2013-07-16 23:37:00,75.7,71.0,30.14,West,271,0.0,1.0,86,0.00,,,0.01,weatherlink.com 1.10,2013-07-17 03:37:00,
2013-07-16 23:52:00,75.4,71.0,30.13,West,271,0.0,0.0,87,0.00,,,0.01,weatherlink.com 1.10,2013-07-17 03:52:00,